timestamp,wind_dir_avg,wind_spd_max_dir,wind_spd_avg,wind_spd_gust,battery_voltage,lat,long
2018-02-10 00:00:00+00:00,327.0,318.0,7.3,9.38,,47.59359,-54.27349
2018-02-10 00:10:00+00:00,319.0,313.0,5.87,6.81,,47.59359,-54.27349
2018-02-10 00:20:00+00:00,335.0,320.0,5.76,7.07,,47.59359,-54.27349
2018-02-10 00:30:00+00:00,333.0,324.0,6.3,7.66,,47.59359,-54.27349
2018-02-10 00:40:00+00:00,0.0,11.0,6.52,8.32,,47.59359,-54.27349
2018-02-10 00:50:00+00:00,2.0,4.0,7.15,8.35,,47.59359,-54.27349
2018-02-10 01:00:00+00:00,8.0,13.0,6.04,7.1,,47.59359,-54.27349
2018-02-10 01:10:00+00:00,358.0,4.0,5.73,6.7,,47.59359,-54.27349
2018-02-10 01:20:00+00:00,349.0,346.0,5.63,6.38,,47.59359,-54.27349
2018-02-10 01:30:00+00:00,343.0,348.0,5.47,6.22,,47.59359,-54.27349
2018-02-10 01:40:00+00:00,347.0,345.0,5.6,6.4,,47.59359,-54.27349
2018-02-10 01:50:00+00:00,349.0,345.0,5.31,6.2,,47.59359,-54.27349
2018-02-10 02:00:00+00:00,351.0,352.0,5.36,6.18,,47.59359,-54.27349
2018-02-10 02:10:00+00:00,345.0,341.0,5.26,6.01,,47.59359,-54.27349
2018-02-10 02:20:00+00:00,344.0,344.0,4.81,5.88,,47.59359,-54.27349
2018-02-10 02:30:00+00:00,341.0,343.0,5.48,6.11,,47.59359,-54.27349
2018-02-10 02:40:00+00:00,345.0,342.0,5.17,6.16,,47.59359,-54.27349
2018-02-10 02:50:00+00:00,342.0,346.0,5.15,6.03,,47.59359,-54.27349
2018-02-10 03:00:00+00:00,347.0,351.0,4.74,5.68,,47.59359,-54.27349
2018-02-10 03:10:00+00:00,335.0,329.0,4.68,5.24,,47.59359,-54.27349
2018-02-10 03:20:00+00:00,343.0,345.0,4.83,5.38,,47.59359,-54.27349
2018-02-10 03:30:00+00:00,342.0,344.0,4.82,5.48,,47.59359,-54.27349
2018-02-10 03:40:00+00:00,346.0,342.0,5.06,5.57,,47.59359,-54.27349
2018-02-10 03:50:00+00:00,352.0,356.0,4.3,4.99,,47.59359,-54.27349
2018-02-10 04:00:00+00:00,359.0,7.0,4.56,5.28,,47.59359,-54.27349
2018-02-10 04:10:00+00:00,357.0,359.0,3.83,4.25,,47.59359,-54.27349
2018-02-10 04:20:00+00:00,359.0,5.0,3.26,3.78,,47.59359,-54.27349
2018-02-10 04:30:00+00:00,341.0,333.0,2.93,3.54,,47.59359,-54.27349
2018-02-10 04:40:00+00:00,328.0,329.0,2.24,2.86,,47.59359,-54.27349
2018-02-10 04:50:00+00:00,308.0,309.0,1.87,2.46,,47.59359,-54.27349
2018-02-10 05:00:00+00:00,299.0,297.0,2.12,2.69,,47.59359,-54.27349
2018-02-10 05:10:00+00:00,267.0,273.0,2.09,2.59,,47.59359,-54.27349
2018-02-10 05:20:00+00:00,256.0,257.0,3.68,4.79,,47.59359,-54.27349
2018-02-10 05:30:00+00:00,262.0,260.0,2.89,3.54,,47.59359,-54.27349
2018-02-10 05:40:00+00:00,276.0,257.0,2.15,3.49,,47.59359,-54.27349
2018-02-10 05:50:00+00:00,291.0,285.0,2.27,5.54,,47.59359,-54.27349
2018-02-10 06:00:00+00:00,276.0,271.0,4.0,5.1,,47.59359,-54.27349
2018-02-10 06:10:00+00:00,282.0,277.0,2.09,4.86,,47.59359,-54.27349
2018-02-10 06:20:00+00:00,257.0,256.0,2.18,4.55,,47.59359,-54.27349
2018-02-10 06:30:00+00:00,266.0,274.0,1.09,3.15,,47.59359,-54.27349
2018-02-10 06:40:00+00:00,253.0,256.0,5.57,6.78,,47.59359,-54.27349
2018-02-10 06:50:00+00:00,260.0,269.0,2.97,4.72,,47.59359,-54.27349
2018-02-10 07:00:00+00:00,247.0,249.0,4.61,5.65,,47.59359,-54.27349
2018-02-10 07:10:00+00:00,258.0,261.0,4.89,5.55,,47.59359,-54.27349
2018-02-10 07:20:00+00:00,243.0,241.0,5.26,5.78,,47.59359,-54.27349
2018-02-10 07:30:00+00:00,263.0,263.0,4.5,4.87,,47.59359,-54.27349
2018-02-10 07:40:00+00:00,246.0,253.0,4.26,5.63,,47.59359,-54.27349
2018-02-10 07:50:00+00:00,231.0,216.0,4.01,6.26,,47.59359,-54.27349
2018-02-10 08:00:00+00:00,263.0,264.0,2.76,4.62,,47.59359,-54.27349
2018-02-10 08:10:00+00:00,244.0,251.0,5.1,5.76,,47.59359,-54.27349
2018-02-10 08:20:00+00:00,240.0,240.0,5.14,5.71,,47.59359,-54.27349
2018-02-10 08:30:00+00:00,243.0,239.0,4.9,5.9,,47.59359,-54.27349
2018-02-10 08:40:00+00:00,235.0,233.0,4.96,5.99,,47.59359,-54.27349
2018-02-10 08:50:00+00:00,238.0,228.0,4.95,5.53,,47.59359,-54.27349
2018-02-10 09:00:00+00:00,245.0,245.0,5.87,6.85,,47.59359,-54.27349
2018-02-10 09:10:00+00:00,249.0,244.0,6.05,7.49,,47.59359,-54.27349
2018-02-10 09:20:00+00:00,242.0,251.0,6.22,7.44,,47.59359,-54.27349
2018-02-10 09:30:00+00:00,240.0,242.0,5.7,7.19,,47.59359,-54.27349
2018-02-10 09:40:00+00:00,244.0,249.0,5.9,7.52,,47.59359,-54.27349
2018-02-10 09:50:00+00:00,252.0,258.0,5.29,7.02,,47.59359,-54.27349
2018-02-10 10:00:00+00:00,264.0,258.0,6.94,7.81,,47.59359,-54.27349
2018-02-10 10:10:00+00:00,267.0,270.0,5.84,6.83,,47.59359,-54.27349
2018-02-10 10:20:00+00:00,259.0,253.0,5.64,6.41,,47.59359,-54.27349
2018-02-10 10:30:00+00:00,250.0,246.0,4.74,5.46,,47.59359,-54.27349
2018-02-10 10:40:00+00:00,241.0,232.0,5.29,6.07,,47.59359,-54.27349
2018-02-10 10:50:00+00:00,249.0,249.0,5.03,5.73,,47.59359,-54.27349
2018-02-10 11:00:00+00:00,243.0,247.0,5.08,5.81,,47.59359,-54.27349
2018-02-10 11:10:00+00:00,245.0,243.0,5.04,5.86,,47.59359,-54.27349
2018-02-10 11:20:00+00:00,239.0,231.0,4.63,5.87,,47.59359,-54.27349
2018-02-10 11:30:00+00:00,246.0,253.0,5.21,6.19,,47.59359,-54.27349
2018-02-10 11:40:00+00:00,246.0,249.0,4.9,5.33,,47.59359,-54.27349
2018-02-10 11:50:00+00:00,246.0,240.0,6.88,7.92,,47.59359,-54.27349
2018-02-10 12:00:00+00:00,250.0,249.0,6.68,7.74,,47.59359,-54.27349
2018-02-10 12:10:00+00:00,252.0,250.0,6.53,7.38,,47.59359,-54.27349
2018-02-10 12:20:00+00:00,237.0,244.0,6.06,6.76,,47.59359,-54.27349
2018-02-10 12:30:00+00:00,255.0,246.0,5.85,8.69,,47.59359,-54.27349
2018-02-10 12:40:00+00:00,243.0,249.0,6.04,7.71,,47.59359,-54.27349
2018-02-10 12:50:00+00:00,238.0,237.0,7.32,9.72,,47.59359,-54.27349
2018-02-10 13:00:00+00:00,240.0,242.0,12.08,14.97,,47.59359,-54.27349
2018-02-10 13:10:00+00:00,242.0,247.0,8.79,13.36,,47.59359,-54.27349
2018-02-10 13:20:00+00:00,242.0,256.0,9.18,14.42,,47.59359,-54.27349
2018-02-10 13:30:00+00:00,243.0,259.0,9.65,14.6,,47.59359,-54.27349
2018-02-10 13:40:00+00:00,231.0,233.0,14.57,18.35,,47.59359,-54.27349
2018-02-10 13:50:00+00:00,238.0,236.0,8.9,11.51,,47.59359,-54.27349
2018-02-10 14:00:00+00:00,238.0,244.0,13.36,16.72,,47.59359,-54.27349
2018-02-10 14:10:00+00:00,228.0,231.0,13.72,16.61,,47.59359,-54.27349
2018-02-10 14:20:00+00:00,232.0,237.0,13.15,15.88,,47.59359,-54.27349
2018-02-10 14:30:00+00:00,236.0,238.0,14.97,18.08,,47.59359,-54.27349
2018-02-10 14:40:00+00:00,234.0,237.0,14.44,16.66,,47.59359,-54.27349
2018-02-10 14:50:00+00:00,226.0,232.0,12.99,16.32,,47.59359,-54.27349
2018-02-10 15:00:00+00:00,229.0,235.0,14.28,17.07,,47.59359,-54.27349
2018-02-10 15:10:00+00:00,227.0,232.0,12.68,16.42,,47.59359,-54.27349
2018-02-10 15:20:00+00:00,234.0,234.0,15.04,16.85,,47.59359,-54.27349
2018-02-10 15:30:00+00:00,226.0,237.0,13.48,16.85,,47.59359,-54.27349
2018-02-10 15:40:00+00:00,228.0,225.0,13.33,17.01,,47.59359,-54.27349
2018-02-10 15:50:00+00:00,226.0,233.0,15.42,18.05,,47.59359,-54.27349
2018-02-10 16:00:00+00:00,229.0,229.0,11.97,15.75,,47.59359,-54.27349
2018-02-10 16:10:00+00:00,220.0,216.0,12.44,16.1,,47.59359,-54.27349
2018-02-10 16:20:00+00:00,227.0,237.0,13.99,18.37,,47.59359,-54.27349
2018-02-10 16:30:00+00:00,229.0,232.0,17.2,19.06,,47.59359,-54.27349
2018-02-10 16:40:00+00:00,227.0,239.0,12.09,17.02,,47.59359,-54.27349
2018-02-10 16:50:00+00:00,225.0,228.0,14.99,18.73,,47.59359,-54.27349
2018-02-10 17:00:00+00:00,231.0,234.0,16.69,19.41,,47.59359,-54.27349
2018-02-10 17:10:00+00:00,230.0,236.0,16.83,19.37,,47.59359,-54.27349
2018-02-10 17:20:00+00:00,233.0,231.0,16.41,19.17,,47.59359,-54.27349
2018-02-10 17:30:00+00:00,228.0,234.0,15.13,18.5,,47.59359,-54.27349
2018-02-10 17:40:00+00:00,237.0,237.0,16.2,18.37,,47.59359,-54.27349
2018-02-10 17:50:00+00:00,234.0,237.0,16.98,18.68,,47.59359,-54.27349
2018-02-10 18:00:00+00:00,235.0,235.0,17.27,19.34,,47.59359,-54.27349
2018-02-10 18:10:00+00:00,225.0,233.0,14.56,17.53,,47.59359,-54.27349
2018-02-10 18:20:00+00:00,233.0,232.0,15.94,19.01,,47.59359,-54.27349
2018-02-10 18:30:00+00:00,228.0,230.0,14.87,18.2,,47.59359,-54.27349
2018-02-10 18:40:00+00:00,233.0,235.0,17.24,19.23,,47.59359,-54.27349
2018-02-10 18:50:00+00:00,233.0,233.0,17.18,18.7,,47.59359,-54.27349
2018-02-10 19:00:00+00:00,226.0,237.0,13.53,17.02,,47.59359,-54.27349
2018-02-10 19:10:00+00:00,228.0,243.0,14.38,19.17,,47.59359,-54.27349
2018-02-10 19:20:00+00:00,224.0,229.0,13.64,17.97,,47.59359,-54.27349
2018-02-10 19:30:00+00:00,221.0,225.0,13.66,16.23,,47.59359,-54.27349
2018-02-10 19:40:00+00:00,224.0,240.0,12.67,16.94,,47.59359,-54.27349
2018-02-10 19:50:00+00:00,217.0,212.0,11.73,13.22,,47.59359,-54.27349
2018-02-10 20:00:00+00:00,220.0,227.0,13.05,16.36,,47.59359,-54.27349
2018-02-10 20:10:00+00:00,225.0,226.0,15.5,18.44,,47.59359,-54.27349
2018-02-10 20:20:00+00:00,224.0,232.0,14.68,18.06,,47.59359,-54.27349
2018-02-10 20:30:00+00:00,220.0,225.0,13.17,16.02,,47.59359,-54.27349
2018-02-10 20:40:00+00:00,228.0,236.0,15.4,19.14,,47.59359,-54.27349
2018-02-10 20:50:00+00:00,227.0,232.0,15.5,18.55,,47.59359,-54.27349
2018-02-10 21:00:00+00:00,219.0,224.0,13.51,16.11,,47.59359,-54.27349
2018-02-10 21:10:00+00:00,219.0,224.0,13.65,15.74,,47.59359,-54.27349
2018-02-10 21:20:00+00:00,214.0,218.0,12.14,14.72,,47.59359,-54.27349
2018-02-10 21:30:00+00:00,212.0,209.0,10.7,12.88,,47.59359,-54.27349
2018-02-10 21:40:00+00:00,210.0,211.0,9.62,10.72,,47.59359,-54.27349
2018-02-10 21:50:00+00:00,212.0,212.0,9.19,10.08,,47.59359,-54.27349
2018-02-10 22:00:00+00:00,216.0,219.0,9.41,11.08,,47.59359,-54.27349
2018-02-10 22:10:00+00:00,214.0,215.0,12.06,13.88,,47.59359,-54.27349
2018-02-10 22:20:00+00:00,218.0,217.0,9.69,10.98,,47.59359,-54.27349
2018-02-10 22:30:00+00:00,216.0,221.0,14.07,16.91,,47.59359,-54.27349
2018-02-10 22:40:00+00:00,220.0,221.0,13.34,15.19,,47.59359,-54.27349
2018-02-10 22:50:00+00:00,229.0,228.0,13.1,14.8,,47.59359,-54.27349
2018-02-10 23:00:00+00:00,227.0,230.0,14.97,17.14,,47.59359,-54.27349
2018-02-10 23:10:00+00:00,230.0,237.0,13.74,15.67,,47.59359,-54.27349
2018-02-10 23:20:00+00:00,234.0,241.0,11.3,13.01,,47.59359,-54.27349
2018-02-10 23:30:00+00:00,238.0,243.0,11.57,13.96,,47.59359,-54.27349
2018-02-10 23:40:00+00:00,245.0,242.0,12.87,15.88,,47.59359,-54.27349
2018-02-10 23:50:00+00:00,246.0,253.0,11.57,15.21,,47.59359,-54.27349
